Regional Weather Roundup
Issued by NWS

Home | Current Version | Previous Version | Graphics & Text | Print | Product List | Glossary On
Versions: 1 2 3 4 5 6 7 8 9 10 11 12 13 14 15 16 17 18 19 20 21 22 23 24 25 26 27
000
ASUS45 KBOU 231007
RWRCO

WEATHER ROUNDUP FOR COLORADO
NATIONAL WEATHER SERVICE DENVER/BOULDER CO
400 AM MDT SAT JUL 23 2016

NOTE: "FAIR" INDICATES FEW OR NO CLOUDS BELOW 12000 FEET WITH NO
SIGNIFICANT WEATHER AND/OR OBSTRUCTIONS TO VISIBILITY.

COZ001>005-013-030-031-231100-
...NORTHWEST COLORADO...

CITY           SKY/WX    TMP DP  RH WIND       PRES   REMARKS
CRAIG          FAIR      55  47  74 E6        30.25F
HAYDEN         FAIR      57  43  58 E7        30.29R
MEEKER         FAIR      57  49  74 E5        30.27S
MOUNT WERNER   NOT AVBL
STEAMBOAT SPGS FAIR      54  46  74 CALM      30.32S
WALDEN         FAIR      50  41  71 SE7       30.39S
$$

COZ006>008-011-231100-
...WEST CENTRAL VALLEYS...

CITY           SKY/WX    TMP DP  RH WIND       PRES   REMARKS
GRAND JUNCTION FAIR      69  54  58 E14       30.14S
MONTROSE       FAIR      61  50  67 E7        30.26F
EAGLE          FAIR      57  48  72 NW3       30.34S
RIFLE          FAIR      64  51  62 CALM      30.22S
DELTA          FAIR      64  56  77 CALM      30.22F
NUCLA          FAIR      61  54  77 CALM      30.29S
$$

COZ017>023-064>068-231100-
...SOUTHWEST COLORADO...

CITY           SKY/WX    TMP DP  RH WIND       PRES   REMARKS
DURANGO        FAIR      65  47  52 N7        30.30F
CORTEZ         FAIR      57  48  72 SE5       30.25F
PAGOSA SPRINGS FAIR      64  45  50 CALM      30.39F
TELLURIDE      FAIR      54  47  76 SE7       30.51F
WOLF CREEK PAS MOCLDY    46  43  87 SW10      30.71F
$$

COZ009-010-012-014-032>034-037-058>063-231100-
...CENTRAL COLORADO...

CITY           SKY/WX    TMP DP  RH WIND       PRES   REMARKS
ASPEN          FAIR      53  46  77 SW7       30.38F
BUENA VISTA    FAIR      53  45  72 CALM      30.38F
COPPER MTN     FAIR      54  37  54 S3        30.69F
BERTHOUD PASS  FAIR      41  30  65 N21       30.70S
COTTONWOOD PAS FAIR      61  41  48 W10G22    30.51F
GUNNISON       FAIR      50  45  81 CALM      30.44F
KREMMLING      FAIR      50  43  76 CALM      30.39S
LEADVILLE      FAIR      48  39  71 NE6       30.52F
MONARCH PASS   FAIR      45  41  87 W16G22    30.78F
SALIDA         FAIR      60  47  61 NW3       30.43F
SUNLIGHT       MOCLDY    55  39  54 CALM      30.62F
WILKERSON PASS FAIR      54  34  47 NW8       30.64S
$$

COZ069>075-231100-
...SAN LUIS VALLEY/SANGRE DE CRISTO MOUNTAINS...

CITY           SKY/WX    TMP DP  RH WIND       PRES   REMARKS
ALAMOSA        FAIR      52  47  83 SE6       30.36S
LA VETA PASS   FAIR      54  43  66 SW8       30.52F
SAGUACHE       FAIR      59  46  63 NW17      30.40R
$$

COZ035-036-038>040-231100-
...NORTHERN COLORADO FRONT RANGE...

CITY           SKY/WX    TMP DP  RH WIND       PRES   REMARKS
DENVER INTL AP FAIR      69  49  48 SW9       30.10F
DMNS CITY PARK   N/A     69  50  51 S3        30.10F
AURORA         PTCLDY    66  48  53 S8        30.13F
FRONT RANGE AP NOT AVBL
ERIE MUNI ARPT FAIR      62  55  76 CALM      30.08F
BOULDER MUN AP FAIR      68  52  56 CALM      30.09F
CENTENNIAL     FAIR      71  43  36 SW9       30.14F
BROOMFIELD     FAIR      70  43  37 NW3       30.13S
LONGMONT       FAIR      64  57  76 SW3       30.10F
$$

COZ041-046-047-076>085-087-088-231100-
...PIKES PEAK/PALMER DIVIDE AND SOUTHERN FOOTHILLS...

CITY           SKY/WX    TMP DP  RH WIND       PRES   REMARKS
COLO. SPRINGS  FAIR      72  45  37 N12       30.17F
A. F. ACADEMY  FAIR      63  46  53 N8        30.20F
SCHRIEVER AFB  NOT AVBL
ELLICOTT       FAIR     N/A N/A N/A N6        30.14F
FALCON         FAIR      67  43  41 NW7       30.23F
FORT CARSON    FAIR      67  45  44 NW6       30.13S
LIMON          FAIR      64  49  57 NW7       30.09F
MONUMENT HILL  FAIR      59  46  63 W10       30.25F
TRINIDAD       NOT AVBL
$$

COZ042>045-048>051-090-091-231100-
...NORTHEAST COLORADO...

CITY           SKY/WX    TMP DP  RH WIND       PRES   REMARKS
GREELEY ARPT   FAIR      64  63  94 NW5       30.07F
AKRON          FAIR      69  61  75 S8        30.04F
BURLINGTON     FAIR      69  60  73 NE6       30.00S
WRAY           FAIR      68  64  88 CALM      29.97F
STERLING       FAIR      68  64  88 W5        29.98F
HOLYOKE        FAIR      75  61  60 W7        29.94F
FORT MORGAN    FAIR      66  62  87 NE6       30.04S
$$

COZ086-089-092>099-231100-
...SOUTHEAST COLORADO...

CITY           SKY/WX    TMP DP  RH WIND       PRES   REMARKS
PUEBLO         FAIR      66  57  72 W7        30.04F
LA JUNTA       FAIR      75  52  44 W15       29.99F
LAMAR          FAIR      77  53  43 SW6       29.93S
SPRINGFIELD      N/A     75  47  36 SW7       30.03S
$$




USA.gov is the U.S. government's official web portal to all federal, state and local government web resources and services.